Latest Coastal Weather Observations for Montague Island

IDN60701

Issued at 1:51 pm EST Wednesday 22 April 2015 (issued every 10 minutes, with the page automatically refreshed every 10 minutes)

About coastal observations | Map of coastal stations | Coastal observations for NSW | Marine services | Other Formats
Station Details ID: 069017 Name: MONTAGUE ISLAND LIGHTHOUSE Lat: -36.25 Lon: 150.23 Height: 52.0 m
Data from the previous 72 hours. | See also: Recent months at Montague Island
Date/Time
EST
Temp

°C
Wind Pressure Rain
since 9am
mm
Weather Cloud Vis
km
Sea
Height
m
Swell
Dir
 
Speed
knots
Gust
knots
hPa Trend Height
m
Period
s
Dir
22/01:30pm 15.6 SW 33 40 1014.5 - 1.4 - - - - - - -
22/01:00pm 15.6 SW 31 37 1015.1 - 0.8 - - - - - - -
22/12:30pm 15.7 SW 32 42 1015.3 - 0.4 - - - - - - -
22/12:22pm 15.9 SW 33 43 1015.4 - 0.4 - - - - - - -
22/12:00pm 15.9 SSW 35 44 1015.8 - 0.4 - - - - - - -
22/11:30am 16.1 SSW 37 49 1016.0 - 0.4 - - - - - - -
22/11:11am 16.1 SSW 34 45 1016.6 - 0.4 - - - - - - -
22/11:00am 15.5 SSW 38 47 1016.5 - 0.4 - - - - - - -
22/10:30am 15.1 SSW 35 45 1017.1 - 0.4 - - - - - - -
22/10:23am 14.9 SW 35 45 1017.0 - 0.4 - - - - - - -
22/10:00am 14.8 SSW 35 42 1017.5 - 0.4 - - - - - - -
22/09:30am 14.7 SW 34 42 1017.9 - 0.2 - - - - - - -
22/09:00am 14.4 SW 34 41 1018.0 - 8.0 Recent precip. - - - - - -
22/08:33am 14.8 SW 30 40 1018.5 - 7.8 - - - - - - -
22/08:30am 14.7 SW 31 40 1018.4 - 7.8 - - - - - - -
22/08:26am 15.1 SSW 33 44 1018.4 - 7.6 - - - - - - -
22/08:00am 15.0 SSW 35 43 1018.5 - 7.4 - - - - - - -
22/07:30am 14.6 SSW 38 46 1018.7 - 6.6 - - - - - - -
22/07:00am 14.9 SSW 34 41 1018.7 - 6.2 - - - - - - -
22/06:30am 14.8 S 36 43 1018.7 - 5.6 - - - - - - -
22/06:06am 14.8 S 35 46 1018.4 - 4.0 - - - - - - -
22/06:00am 14.8 S 34 43 1018.4 - 3.8 Rain - - - - - -
22/05:30am 14.6 S 35 45 1018.7 - 2.4 - - - - - - -
22/05:27am 14.9 S 34 45 1018.7 - 2.4 - - - - - - -
22/05:00am 14.5 S 36 44 1018.5 - 2.0 - - - - - - -
22/04:30am 15.2 S 33 40 1018.8 - 1.6 - - - - - - -
22/04:00am 15.3 S 32 43 1019.0 - 1.6 - - - - - - -
22/03:30am 15.4 S 31 40 1019.2 - 1.6 - - - - - - -
22/03:00am 15.5 SSE 31 38 1019.7 - 1.2 Rain - - - - - -
22/02:47am 16.8 SSE 32 42 1019.7 - 1.0 - - - - - - -
22/02:30am 17.3 S 33 41 1019.7 - 1.0 - - - - - - -
22/02:00am 16.8 S 33 41 1019.6 - 1.0 - - - - - - -
22/01:30am 16.5 S 32 39 1019.6 - 1.0 - - - - - - -
22/01:17am 16.3 S 33 43 1019.7 - 1.0 - - - - - - -
22/01:00am 16.3 S 33 40 1020.3 - 1.0 - - - - - - -
22/12:35am 16.3 S 31 43 1020.7 - 0.8 - - - - - - -
22/12:30am 16.2 S 32 40 1020.8 - 0.8 - - - - - - -
22/12:04am 16.3 S 33 44 1021.1 - 0.8 - - - - - - -
22/12:00am 15.7 S 35 44 1021.0 - 0.8 - - - - - - -
 
Date/Time
EST
Temp

°C
Wind Pressure Rain
since 9am
mm
Weather Cloud Vis
km
Sea
Height
m
Swell
Dir
 
Speed
knots
Gust
knots
hPa Trend Height
m
Period
s
Dir
21/11:36pm 16.7 SSE 34 44 1021.2 - 0.8 - - - - - - -
21/11:30pm 16.4 SSE 35 43 1021.3 - 0.8 - - - - - - -
21/11:08pm 17.6 SSE 32 43 1021.5 - 0.8 - - - - - - -
21/11:00pm 17.6 S 33 42 1021.6 - 0.8 - - - - - - -
21/10:57pm 17.3 S 32 42 1021.6 - 0.8 - - - - - - -
21/10:30pm 17.1 S 35 44 1021.7 - 0.8 - - - - - - -
21/10:26pm 16.9 S 33 44 1021.8 - 0.8 - - - - - - -
21/10:00pm 17.5 SSE 33 40 1022.4 - 0.8 - - - - - - -
21/09:35pm 17.0 S 31 41 1022.5 - 0.8 - - - - - - -
21/09:30pm 16.9 S 33 41 1022.5 - 0.8 - - - - - - -
21/09:03pm 17.3 SSE 33 44 1022.6 - 0.8 - - - - - - -
21/09:00pm 17.4 SSE 35 44 1022.5 - 0.8 - - - - - - -
21/08:51pm 17.5 SSE 32 43 1022.7 - 0.8 - - - - - - -
21/08:30pm 17.3 SSE 34 40 1022.8 - 0.8 - - - - - - -
21/08:00pm 16.8 S 31 39 1023.0 - 0.8 - - - - - - -
21/07:30pm 16.7 S 33 42 1023.2 - 0.8 - - - - - - -
21/07:00pm 16.8 SSE 35 43 1023.4 - 0.8 - - - - - - -
21/06:31pm 16.6 S 33 43 1023.7 - 0.8 - - - - - - -
21/06:30pm 16.9 S 32 41 1023.7 - 0.8 - - - - - - -
21/06:00pm 16.5 S 31 39 1023.7 - 0.8 Recent precip. - - - - - -
21/05:30pm 16.1 S 35 42 1023.3 - 0.8 - - - - - - -
21/05:00pm 14.1 S 34 46 1023.3 - 0.6 - - - - - - -
21/04:33pm 16.0 S 32 43 1023.4 - 0.2 - - - - - - -
21/04:30pm 15.7 S 32 41 1023.6 - 0.2 - - - - - - -
21/04:21pm 14.6 S 33 41 1023.4 - 0.2 - - - - - - -
21/04:09pm 16.0 S 30 40 1023.6 - 0.0 - - - - - - -
21/04:00pm 15.9 S 35 43 1023.4 - 0.0 - - - - - - -
21/03:51pm 16.2 SSE 31 40 1023.4 - 0.0 - - - - - - -
21/03:46pm 15.6 SSE 33 42 1023.7 - 0.0 - - - - - - -
21/03:30pm 16.7 S 34 42 1023.3 - 0.0 - - - - - - -
21/03:00pm 16.4 S 34 45 1023.5 - 0.0 - - - - - - -
21/02:51pm 16.9 S 31 43 1023.5 - 0.0 - - - - - - -
21/02:30pm 16.9 S 32 40 1023.8 - 0.0 - - - - - - -
21/02:00pm 16.6 S 31 42 1024.2 - 0.0 - - - - - - -
21/01:40pm 16.9 S 32 43 1024.3 - 0.0 - - - - - - -
21/01:30pm 16.8 S 32 40 1024.4 - 0.0 - - - - - - -
21/01:00pm 17.0 SSE 31 39 1025.0 - 0.0 - - - - - - -
21/12:30pm 16.9 S 32 41 1025.4 - 0.0 - - - - - - -
21/12:00pm 16.8 S 32 41 1025.8 - 0.0 - - - - - - -
21/11:30am 16.7 S 34 40 1026.3 - 0.0 - - - - - - -
21/11:17am 16.7 S 32 42 1026.4 - 0.0 - - - - - - -
21/11:00am 16.6 S 32 39 1026.7 - 0.0 - - - - - - -
21/10:33am 16.7 S 31 41 1026.8 - 0.0 - - - - - - -
21/10:30am 16.9 S 30 38 1027.0 - 0.0 - - - - - - -
21/10:00am 16.8 SSE 33 42 1027.0 - 0.0 - - - - - - -
21/09:48am 16.6 SSE 31 41 1027.2 - 0.0 - - - - - - -
21/09:30am 16.6 SSE 34 41 1027.1 - 0.0 - - - - - - -
21/09:16am 16.3 SSE 31 41 1027.1 - 0.0 - - - - - - -
21/09:00am 16.4 S 32 41 1027.2 - 0.4 - - - - - - -
21/08:43am 15.7 SSE 28 38 1027.3 - 0.4 - - - - - - -
21/08:30am 15.1 S 31 38 1027.5 - 0.4 - - - - - - -
21/08:10am 15.8 SSE 31 42 1027.4 - 0.4 - - - - - - -
21/08:00am 16.2 SSE 29 37 1027.3 - 0.4 - - - - - - -
21/07:30am 16.4 SSE 32 38 1027.2 - 0.4 - - - - - - -
21/07:00am 16.3 S 32 39 1027.0 - 0.4 - - - - - - -
21/06:30am 16.2 SSE 29 37 1026.8 - 0.4 - - - - - - -
21/06:00am 16.4 SSE 32 39 1026.9 - 0.4 - - - - - - -
21/05:30am 16.2 S 28 35 1027.0 - 0.4 - - - - - - -
21/05:00am 16.0 S 27 34 1026.7 - 0.4 - - - - - - -
21/04:30am 14.4 S 33 41 1026.8 - 0.4 - - - - - - -
21/04:00am 14.3 S 32 40 1026.9 - 0.4 - - - - - - -
21/03:30am 14.9 SSE 32 39 1026.9 - 0.2 - - - - - - -
21/03:16am 14.4 SSE 29 39 1027.0 - 0.2 - - - - - - -
21/03:06am 15.5 SSE 27 38 1027.3 - 0.2 - - - - - - -
21/03:00am 15.4 SSE 30 38 1027.3 - 0.2 - - - - - - -
21/02:36am 15.7 SSE 32 42 1027.3 - 0.2 - - - - - - -
21/02:30am 16.1 SSE 30 37 1027.4 - 0.2 - - - - - - -
21/02:00am 16.1 SSE 32 37 1027.6 - 0.2 - - - - - - -
21/01:30am 16.3 SSE 29 35 1027.9 - 0.2 - - - - - - -
21/01:05am 15.8 SSE 33 43 1028.3 - 0.2 - - - - - - -
21/01:00am 15.7 SSE 36 43 1028.1 - 0.2 - - - - - - -
21/12:43am 16.2 SSE 30 41 1028.0 - 0.2 - - - - - - -
21/12:30am 16.0 SSE 30 37 1028.3 - 0.2 - - - - - - -
21/12:00am 16.0 SSE 31 38 1028.4 - 0.2 - - - - - - -
 
Date/Time
EST
Temp

°C
Wind Pressure Rain
since 9am
mm
Weather Cloud Vis
km
Sea
Height
m
Swell
Dir
 
Speed
knots
Gust
knots
hPa Trend Height
m
Period
s
Dir
20/11:30pm 16.1 S 28 37 1029.2 - 0.2 - - - - - - -
20/11:00pm 15.4 S 32 39 1029.2 - 0.2 - - - - - - -
20/10:30pm 15.4 SSE 32 38 1029.5 - 0.2 - - - - - - -
20/10:00pm 15.3 S 32 41 1029.4 - 0.2 - - - - - - -
20/09:30pm 14.7 SSE 29 41 1029.6 - 0.2 - - - - - - -
20/09:20pm 15.1 SSE 28 38 1029.8 - 0.2 - - - - - - -
20/09:00pm 15.2 SE 31 40 1029.7 - 0.2 Recent precip. - - - - - -
20/08:30pm 14.8 SE 33 42 1029.1 - 0.0 - - - - - - -
20/08:08pm 15.0 SSE 32 44 1029.2 - 0.0 - - - - - - -
20/08:00pm 15.6 SSE 33 42 1029.2 - 0.0 - - - - - - -
20/07:35pm 16.1 SSE 30 41 1029.2 - 0.0 - - - - - - -
20/07:30pm 15.8 SSE 31 41 1028.9 - 0.0 - - - - - - -
20/07:14pm 16.0 SSE 28 38 1029.7 - 0.0 - - - - - - -
20/07:00pm 16.4 SSE 27 36 1029.6 - 0.0 - - - - - - -
20/06:30pm 15.8 S 32 39 1029.1 - 0.0 - - - - - - -
20/06:00pm 16.2 S 28 33 1029.0 - 0.0 - - - - - - -
20/05:30pm 16.3 S 30 39 1029.2 - 0.0 - - - - - - -
20/05:00pm 16.4 SSE 30 40 1028.7 - 0.0 - - - - - - -
20/04:30pm 16.4 SSE 31 38 1028.3 - 0.0 - - - - - - -
20/04:00pm 16.4 SSE 34 42 1028.3 - 0.0 - - - - - - -
20/03:30pm 16.3 S 35 43 1027.8 - 0.0 - - - - - - -
20/03:00pm 16.4 S 33 46 1028.2 - 0.0 - - - - - - -
20/02:57pm 16.5 S 31 41 1028.5 - 0.0 - - - - - - -
20/02:30pm 16.5 SSE 31 39 1028.9 - 0.0 - - - - - - -
20/02:17pm 16.4 S 32 42 1028.9 - 0.0 - - - - - - -
20/02:00pm 16.5 S 33 40 1028.4 - 0.0 - - - - - - -
20/01:49pm 16.8 SSE 31 41 1028.2 - 0.0 - - - - - - -
20/01:30pm 16.6 SSE 35 42 1028.4 - 0.0 - - - - - - -
20/01:00pm 16.1 S 34 42 1028.8 - 0.0 - - - - - - -
20/12:43pm 16.8 S 30 41 1028.7 - 0.0 - - - - - - -
20/12:30pm 16.2 S 32 41 1028.6 - 0.0 - - - - - - -
20/12:27pm 16.1 SSW 31 41 1028.6 - 0.0 - - - - - - -
20/12:00pm 15.4 SSW 29 38 1028.8 - 0.0 - - - - - - -
20/11:49am 15.7 SSW 29 39 1029.3 - 0.0 - - - - - - -
20/11:30am 15.7 SSW 29 37 1029.6 - 0.0 - - - - - - -
20/11:02am 14.9 SSW 27 37 1030.0 - 0.0 - - - - - - -
20/11:00am 14.8 SSW 27 36 1030.1 - 0.0 - - - - - - -
20/10:30am 15.9 SSW 27 38 1029.8 - 0.0 - - - - - - -
20/10:22am 15.1 SSW 27 38 1029.9 - 0.0 - - - - - - -
20/10:00am 14.7 SSW 26 35 1030.5 - 0.0 - - - - - - -
20/09:54am 14.1 SW 29 39 1030.4 - 0.0 - - - - - - -
20/09:30am 14.1 SSW 31 40 1030.0 - 0.0 - - - - - - -
20/09:11am 14.1 SSW 28 38 1030.0 - 0.0 - - - - - - -
20/09:00am 13.7 SSW 30 38 1029.8 - 1.4 - - - - - - -
20/08:30am 13.6 SW 34 42 1029.2 - 1.4 - - - - - - -
20/08:01am 13.0 SW 31 41 1028.8 - 1.4 - - - - - - -
20/08:00am 13.1 SW 32 41 1028.9 - 1.4 - - - - - - -
20/07:30am 13.1 SSW 32 39 1028.3 - 1.0 - - - - - - -
20/07:02am 12.5 SSW 33 45 1028.0 - 0.4 - - - - - - -
20/07:00am 12.3 SSW 33 41 1028.0 - 0.4 - - - - - - -
20/06:36am 13.1 SSW 32 42 1027.4 - 0.0 - - - - - - -
20/06:30am 12.9 SW 35 44 1027.5 - 0.0 - - - - - - -
20/06:04am 13.0 SW 32 44 1027.6 - 0.0 - - - - - - -
20/06:00am 13.1 SW 32 39 1027.9 - 0.0 - - - - - - -
20/05:42am 12.6 SW 31 41 1027.9 - 0.0 - - - - - - -
20/05:30am 12.6 SW 32 41 1027.9 - 0.0 - - - - - - -
20/05:00am 12.6 SW 32 39 1027.9 - 0.0 - - - - - - -
20/04:30am 12.8 SW 32 39 1027.8 - 0.0 - - - - - - -
20/04:00am 12.5 SW 30 39 1027.6 - 0.0 - - - - - - -
20/03:30am 12.8 SSW 31 38 1027.5 - 0.0 - - - - - - -
20/03:16am 12.6 SSW 28 39 1027.7 - 0.0 - - - - - - -
20/03:00am 12.6 SSW 28 36 1027.3 - 0.0 - - - - - - -
20/02:30am 12.6 SW 31 41 1027.5 - 0.0 - - - - - - -
20/02:00am 12.7 SW 31 42 1027.5 - 0.0 - - - - - - -
20/01:54am 12.4 SW 31 42 1027.3 - 0.0 - - - - - - -
20/01:30am 12.9 SW 29 37 1027.8 - 0.0 - - - - - - -
20/01:13am 13.0 SW 30 40 1027.7 - 0.0 - - - - - - -
20/01:00am 13.4 SW 29 37 1027.7 - 0.0 - - - - - - -
20/12:41am 13.1 SW 29 39 1027.1 - 0.0 - - - - - - -
20/12:30am 13.0 SW 30 37 1026.9 - 0.0 - - - - - - -
20/12:16am 13.2 SW 27 37 1027.6 - 0.0 - - - - - - -
20/12:00am 13.1 SW 26 33 1027.9 - 0.0 - - - - - - -
 
Date/Time
EST
Temp

°C
Wind Pressure Rain
since 9am
mm
Weather Cloud Vis
km
Sea
Height
m
Swell
Dir
 
Speed
knots
Gust
knots
hPa Trend Height
m
Period
s
Dir
19/11:30pm 12.9 SW 31 38 1028.1 - 0.0 - - - - - - -
19/11:00pm 13.0 SW 31 37 1027.7 - 0.0 - - - - - - -
19/10:30pm 13.0 SSW 32 41 1027.5 - 0.0 - - - - - - -
19/10:21pm 13.0 SW 27 41 1027.8 - 0.0 - - - - - - -
19/10:00pm 13.2 SW 30 38 1027.7 - 0.0 - - - - - - -
19/09:36pm 13.1 SW 30 41 1027.1 - 0.0 - - - - - - -
19/09:30pm 13.1 SW 32 40 1027.0 - 0.0 - - - - - - -
19/09:00pm 13.2 SW 33 44 1026.4 - 0.0 - - - - - - -
19/08:59pm 13.2 SW 32 44 1026.3 - 0.0 - - - - - - -
19/08:30pm 13.5 SW 30 37 1026.6 - 0.0 - - - - - - -
19/08:00pm 13.4 SW 31 38 1025.5 - 0.0 - - - - - - -
19/07:41pm 13.6 SW 31 42 1025.4 - 0.0 - - - - - - -
19/07:30pm 13.8 SSW 32 41 1025.4 - 0.0 - - - - - - -
19/07:02pm 14.3 SSW 29 40 1025.2 - 0.0 - - - - - - -
19/07:00pm 14.4 SW 30 40 1025.1 - 0.0 - - - - - - -
19/06:40pm 14.7 SW 25 36 1024.7 - 0.0 - - - - - - -
19/06:30pm 14.7 SW 26 36 1024.8 - 0.0 - - - - - - -
19/06:00pm 14.6 SSW 27 35 1024.3 - 0.0 - - - - - - -
19/05:57pm 15.1 SSW 25 35 1024.1 - 0.0 - - - - - - -
19/05:30pm 15.4 SW 22 30 1023.8 - 0.0 - - - - - - -
19/05:00pm 15.5 SW 24 32 1023.2 - 0.0 - - - - - - -
19/04:30pm 15.6 SSW 25 32 1022.8 - 0.0 - - - - - - -
19/04:00pm 15.1 SSW 22 29 1022.6 - 0.0 - - - - - - -
19/03:30pm 15.1 SSW 23 28 1022.3 - 0.0 - - - - - - -
19/03:00pm 14.8 SSW 25 33 1022.0 - 0.0 - - - - - - -
19/02:49pm 15.0 SSW 22 33 1021.8 - 0.0 - - - - - - -
19/02:30pm 15.0 SW 20 27 1021.6 - 0.0 - - - - - - -
19/02:00pm 14.9 SSW 20 26 1021.4 - 0.0 - - - - - - -

Other Formats:

Comma delimited format used in spreadsheet applications
http://www.bom.gov.au/fwo/IDN60701/IDN60701.94939.axf

JavaScript Object Notation format (JSON) in row-major order
http://www.bom.gov.au/fwo/IDN60701/IDN60701.94939.json